THY960 LTFM-LCEN

Flight info

Callsign THY960
Flight time N/A
Altitude 37000
Route RATVU UT35 DOKUB UT76 KFK UB545 HISAR
Aircraft B77W/H-SDE1E2E3FGHIJ2J3J4J5M1RWXY/LB1D1

Departure

Time 2026-05-01 15:06
Airport İstanbul Airport (LTFM)

Arrival

Time N/A
Airport Ercan International Airport (LCEN)
Time Latitude Longitude Altitude Speed Heading
2026-05-01 14:41 41.26742 28.74119 339 ft 0 kts 91°
2026-05-01 14:57 41.26742 28.74095 333 ft 2 kts 53°
2026-05-01 14:57 41.26728 28.74086 333 ft 2 kts 330°
2026-05-01 14:58 41.26724 28.74088 333 ft 0 kts 311°
2026-05-01 15:00 41.26731 28.74079 337 ft 9 kts 311°
2026-05-01 15:00 41.26833 28.74018 337 ft 18 kts 356°
2026-05-01 15:00 41.26937 28.74004 333 ft 4 kts 322°
2026-05-01 15:01 41.26960 28.73929 335 ft 16 kts 277°
2026-05-01 15:01 41.26946 28.73781 335 ft 16 kts 268°
2026-05-01 15:01 41.26952 28.73632 336 ft 16 kts 276°
2026-05-01 15:01 41.26962 28.73483 339 ft 16 kts 274°
2026-05-01 15:02 41.26959 28.73333 337 ft 16 kts 266°
2026-05-01 15:02 41.26956 28.73284 335 ft 16 kts 266°
2026-05-01 15:02 41.26944 28.73138 334 ft 3 kts 238°
2026-05-01 15:02 41.26929 28.73115 337 ft 4 kts 223°
2026-05-01 15:03 41.26907 28.73105 335 ft 4 kts 173°
2026-05-01 15:03 41.26881 28.73109 336 ft 4 kts 173°
2026-05-01 15:03 41.26816 28.73116 337 ft 19 kts 180°
2026-05-01 15:03 41.26683 28.73113 334 ft 19 kts 181°
2026-05-01 15:04 41.26549 28.73117 337 ft 19 kts 175°
2026-05-01 15:04 41.26416 28.73127 335 ft 19 kts 177°
2026-05-01 15:04 41.26285 28.73124 334 ft 19 kts 183°
2026-05-01 15:04 41.26247 28.73108 335 ft 0 kts 212°
2026-05-01 15:05 41.26235 28.73094 335 ft 9 kts 225°
2026-05-01 15:05 41.26216 28.72971 336 ft 24 kts 266°
2026-05-01 15:05 41.26211 28.72744 338 ft 24 kts 268°
2026-05-01 15:05 41.26255 28.72529 336 ft 24 kts 327°
2026-05-01 15:06 41.26491 28.72508 338 ft 48 kts
2026-05-01 15:06 41.26966 28.72515 335 ft 106 kts 360°
2026-05-01 15:06 41.28024 28.72496 370 ft 195 kts
2026-05-01 15:06 41.29431 28.72300 1481 ft 198 kts 355°
2026-05-01 15:07 41.30724 28.72116 2625 ft 184 kts
2026-05-01 15:07 41.32061 28.72105 2865 ft 199 kts 10°
2026-05-01 15:07 41.33306 28.72865 3257 ft 202 kts 44°
2026-05-01 15:07 41.33972 28.74525 3663 ft 216 kts 78°
2026-05-01 15:08 41.33686 28.76549 4039 ft 239 kts 118°
2026-05-01 15:08 41.32384 28.78028 4579 ft 260 kts 155°
2026-05-01 15:08 41.30568 28.78388 5164 ft 271 kts 176°
2026-05-01 15:08 41.28665 28.78274 5789 ft 276 kts 181°
2026-05-01 15:09 41.26742 28.78084 6523 ft 279 kts 181°
2026-05-01 15:09 41.24799 28.77952 7211 ft 279 kts 179°
2026-05-01 15:09 41.22854 28.78026 7877 ft 279 kts 173°
2026-05-01 15:09 41.20917 28.78312 8489 ft 280 kts 169°
2026-05-01 15:10 41.19008 28.78763 9161 ft 279 kts 167°
2026-05-01 15:10 41.15237 28.80014 10452 ft 280 kts 164°
2026-05-01 15:10 41.13329 28.80761 10734 ft 296 kts 163°
2026-05-01 15:11 41.11295 28.81610 10916 ft 316 kts 162°
2026-05-01 15:11 41.06850 28.83582 11274 ft 358 kts 161°
2026-05-01 15:11 41.04438 28.84693 11642 ft 372 kts 161°
2026-05-01 15:12 41.01972 28.85845 12301 ft 380 kts 161°
2026-05-01 15:12 40.96932 28.88223 13997 ft 388 kts 162°
2026-05-01 15:12 40.94376 28.89436 14738 ft 392 kts 163°
2026-05-01 15:13 40.86533 28.93150 16953 ft 406 kts 163°
2026-05-01 15:14 40.81158 28.95688 18431 ft 415 kts 163°
2026-05-01 15:14 40.78473 28.96954 19051 ft 419 kts 163°
2026-05-01 15:14 40.72943 28.99561 20352 ft 424 kts 163°
2026-05-01 15:15 40.67305 29.02215 21569 ft 431 kts 164°
2026-05-01 15:15 40.61642 29.04875 22758 ft 438 kts 164°
2026-05-01 15:16 40.55864 29.07582 23917 ft 444 kts 165°
2026-05-01 15:16 40.49994 29.10329 24845 ft 451 kts 165°
2026-05-01 15:17 40.44027 29.13115 25769 ft 458 kts 165°
2026-05-01 15:18 40.34920 29.17358 27020 ft 468 kts 166°
2026-05-01 15:18 40.31844 29.18789 27429 ft 471 kts 166°
2026-05-01 15:19 40.22632 29.23064 28548 ft 480 kts 167°
2026-05-01 15:19 40.21692 29.23500 28652 ft 481 kts 167°
2026-05-01 15:19 40.18488 29.24984 28984 ft 484 kts 167°
2026-05-01 15:20 40.12091 29.27943 29596 ft 489 kts 167°
2026-05-01 15:20 40.08874 29.29428 29892 ft 492 kts 167°
2026-05-01 15:20 40.05643 29.30920 30257 ft 492 kts 168°
2026-05-01 15:21 40.02420 29.32408 30580 ft 492 kts 168°
2026-05-01 15:21 39.99189 29.33897 30870 ft 492 kts 168°
2026-05-01 15:21 39.95962 29.35382 31141 ft 493 kts 168°
2026-05-01 15:21 39.92734 29.36865 31425 ft 493 kts 168°
2026-05-01 15:22 39.86315 29.40131 32067 ft 497 kts 165°
2026-05-01 15:22 39.83129 29.41903 32349 ft 499 kts 164°
2026-05-01 15:22 39.79937 29.43688 32632 ft 499 kts 164°
2026-05-01 15:23 39.76746 29.45463 32919 ft 499 kts 165°
2026-05-01 15:23 39.73548 29.47227 33064 ft 502 kts 165°
2026-05-01 15:23 39.67090 29.50763 33119 ft 503 kts 165°
2026-05-01 15:24 39.60656 29.54217 33095 ft 498 kts 166°
2026-05-01 15:24 39.54205 29.57424 33103 ft 495 kts 167°
2026-05-01 15:25 39.47804 29.60566 33106 ft 496 kts 167°
2026-05-01 15:25 39.41343 29.63766 33094 ft 498 kts 167°
2026-05-01 15:26 39.34860 29.66993 33098 ft 499 kts 167°
2026-05-01 15:26 39.28369 29.70222 33111 ft 501 kts 167°
2026-05-01 15:27 39.21964 29.73399 33107 ft 501 kts 167°
2026-05-01 15:28 39.12870 29.77898 33091 ft 502 kts 167°
2026-05-01 15:28 39.06428 29.81078 33094 ft 501 kts 167°
2026-05-01 15:29 39.02033 29.83244 33095 ft 501 kts 167°